Temp_Advection
nan nan nan nan nan nan nan nan nan nan nan nan nan nan nan nan nan nan nan nan nan nan
nan 1 0 0 0 -0 -0 0 0 1 1 0 0 0 0 0 0 0 0 0 0 nan
nan 1 0 0 0 0 0 0 0 1 1 0 0 0 0 0 0 0 0 0 0 nan
nan 1 0 0 0 0 0 0 1 1 1 0 0 0 0 0 -0 -0 0 0 0 nan
nan 0 0 0 0 0 0 0 1 1 0 0 0 0 0 -0 -0 0 0 0 0 nan
nan 0 0 0 0 0 0 0 1 1 0 0 0 0 0 0 0 0 0 0 0 nan
nan 1 1 1 1 0 0 1 1 0 0 0 0 0 0 0 0 0 0 0 0 nan
nan 1 1 1 0 -0 -0 1 0 0 0 0 0 0 0 0 0 0 0 -0 0 nan
nan 1 1 1 0 -0 0 1 0 0 0 0 0 0 1 0 0 0 0 0 0 nan
nan 1 1 0 -0 0 1 0 0 0 0 0 0 1 1 0 0 0 0 -0 0 nan
nan 1 0 -0 0 1 0 0 0 0 0 0 0 0 0 0 0 -0 -0 0 0 nan
nan -0 -0 0 1 0 0 0 0 1 0 0 0 0 0 0 -0 -0 -0 0 0 nan
nan 0 0 0 0 0 0 0 0 0 0 0 0 0 0 0 0 0 0 0 0 nan
nan nan nan nan nan nan nan nan nan nan nan nan nan nan nan nan nan nan nan nan nan nan
Wind_Speed
27 25 23 21 19 17 14 12 12 15 17 17 17 17 17 17 17 17 17 16 16 16
29 27 24 20 18 16 14 13 15 17 18 17 17 16 16 17 17 16 16 16 16 16
29 26 24 21 20 16 14 15 17 18 17 16 16 16 16 15 15 15 15 16 16 16
30 27 25 22 19 16 15 17 18 18 17 15 15 15 15 14 14 14 15 15 16 16
27 24 23 21 18 16 16 18 18 17 15 13 13 12 13 14 15 15 16 16 16 17
25 23 22 20 17 14 15 20 19 17 14 14 12 12 13 15 15 16 15 17 18 19
23 21 19 16 12 11 17 21 19 16 16 14 12 13 14 16 16 14 16 18 19 20
18 18 15 11 11 13 19 20 19 16 14 11 12 13 15 16 16 17 19 19 18 21
17 17 16 16 13 18 19 19 19 18 16 13 12 14 16 16 18 16 15 16 18 19
21 21 18 13 18 17 18 18 19 18 16 13 12 14 15 14 14 15 15 17 18 18
23 18 15 22 22 22 19 18 18 17 16 16 14 12 13 10 11 13 12 14 14 13
17 19 21 24 22 23 18 18 18 17 17 15 13 12 11 11 10 10 10 10 10 14
21 20 20 19 19 18 18 16 15 15 15 16 14 10 10 12 13 12 10 10 9 10
19 20 20 19 20 17 15 15 15 14 14 15 17 12 12 14 14 11 11 10 10 11
Wind_Direction
227 230 231 230 230 232 236 249 266 279 280 276 272 272 272 273 273 273 272 269 266 262
228 231 232 232 234 236 243 257 272 278 277 273 271 271 272 272 273 273 273 270 266 262
229 231 233 231 233 239 252 265 275 275 272 269 268 268 270 270 270 271 271 268 264 259
226 228 229 230 232 240 258 268 273 268 264 263 264 267 270 272 275 276 272 268 262 253
227 230 233 233 234 246 266 270 269 256 263 268 267 266 269 275 281 280 275 266 257 253
225 228 231 232 236 257 281 283 257 246 254 266 262 261 266 272 277 276 267 261 261 264
226 228 225 229 244 280 287 261 242 248 259 258 251 262 273 278 271 266 266 266 268 267
221 219 220 236 268 277 262 244 238 251 244 255 259 268 276 276 263 264 269 264 267 262
218 216 231 249 252 257 246 239 244 237 238 247 255 275 276 264 275 270 268 256 262 266
224 232 232 236 248 242 238 248 236 230 232 237 261 278 279 259 259 269 260 260 264 252
226 218 221 238 239 236 227 226 230 235 237 240 255 278 287 257 263 260 263 264 255 248
225 238 229 222 213 215 218 226 231 233 233 244 258 278 277 262 254 261 272 269 251 238
232 220 218 218 217 219 223 225 230 233 241 240 258 274 254 243 250 258 263 254 240 227
219 224 223 221 219 218 217 220 235 233 234 243 257 258 234 236 249 246 245 249 244 225
Height
1502 1504 1505 1507 1509 1510 1510 1511 1512 1512 1512 1511 1510 1510 1509 1509 1508 1508 1508 1509 1509 1508
1499 1500 1502 1504 1506 1506 1507 1507 1508 1508 1508 1507 1507 1507 1506 1505 1504 1504 1504 1505 1505 1505
1493 1496 1498 1499 1501 1503 1504 1504 1504 1504 1503 1504 1504 1503 1502 1501 1500 1500 1500 1501 1502 1502
1486 1489 1491 1493 1496 1498 1499 1499 1499 1499 1499 1498 1498 1499 1499 1498 1498 1497 1497 1497 1498 1499
1481 1485 1488 1490 1491 1493 1495 1495 1495 1495 1495 1493 1493 1493 1494 1495 1494 1493 1493 1494 1495 1496
1475 1478 1482 1485 1486 1488 1490 1491 1491 1491 1490 1488 1488 1489 1489 1490 1489 1490 1490 1492 1492 1493
1470 1474 1476 1480 1481 1482 1485 1487 1487 1487 1486 1485 1484 1485 1484 1484 1484 1485 1486 1486 1487 1487
1465 1469 1472 1475 1474 1477 1480 1481 1482 1482 1481 1480 1482 1481 1481 1480 1479 1480 1480 1480 1480 1480
1461 1463 1466 1467 1468 1474 1474 1476 1476 1477 1476 1477 1477 1478 1477 1477 1477 1477 1476 1475 1476 1477
1455 1456 1457 1461 1465 1465 1469 1470 1471 1471 1472 1473 1473 1474 1471 1471 1470 1472 1471 1471 1472 1472
1449 1449 1450 1456 1457 1461 1463 1465 1466 1467 1467 1468 1469 1470 1468 1468 1468 1468 1468 1468 1469 1469
1444 1445 1446 1449 1449 1454 1455 1459 1461 1463 1464 1465 1464 1464 1465 1466 1465 1465 1466 1466 1466 1467
1441 1441 1444 1447 1447 1449 1452 1456 1456 1458 1460 1460 1462 1462 1462 1464 1464 1464 1464 1466 1464 1465
1438 1440 1441 1443 1445 1446 1448 1451 1453 1454 1455 1457 1459 1459 1459 1461 1461 1462 1462 1463 1463 1463